Regional Weather Roundup
Issued by NWS Goodland, KS

Home | Current Version | Previous Version | Graphics & Text | Print | Product List | Glossary On
Versions: 1 2 3 4 5 6 7 8 9 10 11 12 13 14 15 16 17 18 19 20 21 22 23 24 25 26 27 28 29 30 31 32 33 34 35 36 37 38 39 40 41 42 43 44 45 46 47 48 49 50
000
ASUS43 KGLD 170008
RWRGLD

GOODLAND FORECAST AREA HOURLY WEATHER ROUNDUP
NATIONAL WEATHER SERVICE GOODLAND KS
500 PM MST THU NOV 16 2017

...OFFICIAL OBSERVATIONS...

CITY           SKY/WX    TMP DP  RH WIND       PRES   REMARKS
GOODLAND KS    CLOUDY    56  30  37 S16       29.75S
HILL CITY KS   CLOUDY    54  37  52 E8        29.82S
IMPERIAL NEB   NOT AVBL
MCCOOK NEB     CLOUDY    57  35  43 S13       29.76S
AKRON CO       CLOUDY    60  18  19 S8        29.73F
BURLINGTON CO  CLOUDY    57  28  33 S16       29.77S
LIMON CO       CLOUDY    54  20  26 S5        29.79F
$$

...UNOFFICIAL OBSERVATIONS...

CITY           SKY/WX    TMP DP  RH WIND       PRES   REMARKS
COLBY KS       CLOUDY    59  39  47 S14G22    29.77F
LENORA KS        N/A     55  32  41 CALM        N/A
NORTON KS      CLEAR     54  30  40 SE9       29.79
SHARON SPRINGS   N/A     58  38  48 SE13G21     N/A
TRENTON NEB      N/A     54  32  43 S8          N/A
YUMA CO        FAIR      52  27  37 SE7       29.71F
$$




USA.gov is the U.S. government's official web portal to all federal, state and local government web resources and services.